WXM80 ListenWXM80 Stop

You find our weather info also at:

UK Metoffice

WeatherCloud

Weather Underground

Northeastern Weather Network

AWEKAS

Citizen Weather Observer Program (CWOP)

HAMweather, WeatherForYou, PWS Weather


Weather Underground History page Text

Daily Summary for December 14, 2017 Units:  English    Metric   Both
« Previous Day
Next Day »
Daily Weekly Monthly Yearly Custom
  High: Low: Average:
Temperature: 31.6 °F 23.4 °F 27.2 °F
Dew Point: 26.3 °F 10.6 °F 20.1 °F
Humidity: 93 % 53 % 76 %
Wind Speed: 11.7 mph 0.0 mph 4.4 mph
Wind Gust: 21.9 mph - -
Wind:- - SW
Pressure: 30.10 in 29.32 in -
Precipitation: 0.05 in    
Historical Graphs
 
 
Tabular Data for December 14, 2017
Time Temperature Dew Point Pressure Wind Wind Speed Wind Gust Humidity Rainfall Rate (Hourly)
00:01 28.5 °F 15.2 °F 29.68 in SSW 7.2 mph 11.5 mph 57 % 0.00 in
00:06 28.4 °F 16.3 °F 29.68 in WSW 9.0 mph 16.1 mph 60 % 0.00 in
00:16 28.1 °F 17.5 °F 29.68 in SSW 5.7 mph 12.0 mph 64 % 0.00 in
00:21 28.1 °F 18.5 °F 29.68 in SSE 3.5 mph 6.9 mph 67 % 0.00 in
00:25 27.9 °F 19.0 °F 29.68 in WSW 6.4 mph 11.5 mph 69 % 0.00 in
00:30 27.8 °F 19.6 °F 29.68 in West 7.5 mph 12.7 mph 71 % 0.00 in
00:35 27.5 °F 20.0 °F 29.68 in WSW 6.2 mph 11.5 mph 73 % 0.00 in
00:40 27.3 °F 20.1 °F 29.68 in WSW 6.3 mph 12.0 mph 74 % 0.00 in
00:45 27.1 °F 20.5 °F 29.68 in WSW 4.6 mph 11.5 mph 76 % 0.00 in
00:50 26.9 °F 20.7 °F 29.67 in WSW 6.8 mph 13.8 mph 77 % 0.00 in
00:53 26.8 °F 20.6 °F 29.45 in WSW 3.9 mph 6.9 mph 77 % 0.00 in
00:58 26.6 °F 21.0 °F 29.67 in SSW 3.7 mph 6.9 mph 79 % 0.00 in
01:03 26.5 °F 21.2 °F 29.67 in West 4.8 mph 11.0 mph 80 % 0.00 in
01:08 26.3 °F 21.3 °F 29.66 in SW 2.7 mph 5.8 mph 81 % 0.00 in
01:13 26.2 °F 21.5 °F 29.66 in SW 3.5 mph 4.6 mph 82 % 0.00 in
01:20 26.1 °F 21.6 °F 29.44 in SW 2.3 mph 3.5 mph 83 % 0.00 in
01:33 25.8 °F 21.3 °F 29.65 in WSW 0.4 mph 2.3 mph 83 % 0.00 in
01:34 25.8 °F 21.3 °F 29.43 in WSW 0.6 mph 2.3 mph 83 % 0.00 in
01:39 25.7 °F 21.5 °F 29.65 in SW 2.8 mph 3.5 mph 84 % 0.00 in
01:44 25.6 °F 21.4 °F 29.64 in Calm     84 % 0.00 in
01:49 25.5 °F 21.3 °F 29.64 in SW 0.9 mph 2.3 mph 84 % 0.00 in
01:54 25.4 °F 21.5 °F 29.64 in SW 0.3 mph 1.2 mph 85 % 0.00 in
02:09 25.2 °F 21.3 °F 29.64 in SW 0.8 mph 1.2 mph 85 % 0.00 in
02:17 25.1 °F 21.5 °F 29.41 in Calm     86 % 0.00 in
02:27 25.0 °F 21.4 °F 29.63 in Calm     86 % 0.00 in
02:32 25.0 °F 21.7 °F 29.62 in Calm     87 % 0.00 in
02:37 25.0 °F 21.7 °F 29.62 in Calm     87 % 0.00 in
02:42 24.9 °F 21.8 °F 29.62 in Calm     88 % 0.00 in
02:47 24.9 °F 21.8 °F 29.62 in Calm     88 % 0.01 in
02:52 24.9 °F 21.8 °F 29.62 in Calm     88 % 0.01 in
02:57 24.8 °F 21.8 °F 29.62 in Calm     88 % 0.01 in
03:02 24.8 °F 21.8 °F 29.61 in Calm     88 % 0.01 in
03:06 24.7 °F 21.7 °F 29.38 in Calm     88 % 0.01 in
03:12 24.7 °F 21.7 °F 29.61 in Calm     88 % 0.01 in
03:17 24.6 °F 21.6 °F 29.60 in Calm     88 % 0.01 in
03:22 24.6 °F 21.6 °F 29.60 in Calm     88 % 0.02 in
03:32 24.5 °F 21.7 °F 29.60 in Calm     89 % 0.02 in
03:37 24.4 °F 21.6 °F 29.59 in Calm     89 % 0.02 in
03:40 24.4 °F 21.6 °F 29.37 in Calm     89 % 0.02 in
03:42 24.4 °F 21.6 °F 29.59 in Calm     89 % 0.02 in
03:47 24.4 °F 21.6 °F 29.59 in Calm     89 % 0.01 in
03:49 24.3 °F 21.5 °F 29.36 in Calm     89 % 0.01 in
03:52 24.3 °F 21.5 °F 29.58 in Calm     89 % 0.01 in
03:54 24.3 °F 21.5 °F 29.36 in Calm     89 % 0.01 in
03:59 24.3 °F 21.5 °F 29.58 in Calm     89 % 0.01 in
04:09 24.3 °F 21.5 °F 29.58 in Calm     89 % 0.01 in
04:14 24.2 °F 21.4 °F 29.58 in Calm     89 % 0.01 in
04:19 24.2 °F 21.4 °F 29.57 in Calm     89 % 0.00 in
04:24 24.2 °F 21.7 °F 29.57 in Calm     90 % 0.00 in
04:29 24.2 °F 21.7 °F 29.56 in Calm     90 % 0.00 in
04:30 24.2 °F 21.7 °F 29.34 in Calm     90 % 0.00 in
04:34 24.2 °F 21.7 °F 29.56 in Calm     90 % 0.00 in
04:39 24.2 °F 21.7 °F 29.56 in Calm     90 % 0.00 in
04:44 24.3 °F 21.8 °F 29.56 in Calm     90 % 0.00 in
04:50 24.3 °F 21.8 °F 29.56 in Calm     90 % 0.00 in
04:55 24.3 °F 21.8 °F 29.56 in Calm     90 % 0.00 in
04:59 24.4 °F 21.9 °F 29.56 in Calm     90 % 0.00 in
05:09 24.5 °F 22.0 °F 29.55 in Calm     90 % 0.00 in
05:14 24.6 °F 22.1 °F 29.55 in Calm     90 % 0.00 in
05:19 24.7 °F 22.2 °F 29.55 in Calm     90 % 0.00 in
05:23 24.7 °F 22.2 °F 29.32 in Calm     90 % 0.00 in
05:24 24.7 °F 22.2 °F 29.32 in Calm     90 % 0.00 in
05:28 24.8 °F 22.3 °F 29.55 in Calm     90 % 0.00 in
05:33 24.9 °F 22.4 °F 29.55 in SW 3.3 mph 4.0 mph 90 % 0.00 in
05:38 25.2 °F 22.9 °F 29.33 in ENE 0.6 mph 3.5 mph 91 % 0.00 in
05:43 25.4 °F 23.1 °F 29.55 in NNE 0.6 mph 2.3 mph 91 % 0.00 in
05:48 25.7 °F 23.7 °F 29.55 in NNW 0.9 mph 3.5 mph 92 % 0.00 in
05:49 25.8 °F 23.8 °F 29.33 in North 2.4 mph 4.6 mph 92 % 0.00 in
05:53 26.1 °F 24.1 °F 29.55 in NNE 2.9 mph 5.8 mph 92 % 0.00 in
05:58 26.5 °F 24.8 °F 29.55 in NNE 1.7 mph 3.5 mph 93 % 0.00 in
06:03 26.8 °F 25.0 °F 29.55 in NNE 4.4 mph 7.0 mph 93 % 0.00 in
06:08 27.1 °F 25.3 °F 29.56 in NNE 2.2 mph 3.5 mph 93 % 0.00 in
06:13 27.3 °F 25.5 °F 29.56 in NE 0.5 mph 3.5 mph 93 % 0.00 in
06:18 27.5 °F 25.7 °F 29.56 in NNE 0.7 mph 3.5 mph 93 % 0.00 in
06:20 27.6 °F 25.8 °F 29.34 in NNE 0.6 mph 5.8 mph 93 % 0.00 in
06:25 27.8 °F 26.0 °F 29.57 in ENE 2.2 mph 5.8 mph 93 % 0.00 in
06:29 27.9 °F 26.1 °F 29.35 in North 1.3 mph 4.6 mph 93 % 0.00 in
06:34 28.0 °F 26.2 °F 29.57 in NNE 1.7 mph 3.5 mph 93 % 0.00 in
06:39 28.1 °F 26.3 °F 29.58 in NNE 2.4 mph 5.0 mph 93 % 0.00 in
06:44 28.1 °F 26.3 °F 29.58 in North 2.8 mph 3.5 mph 93 % 0.00 in
06:50 28.1 °F 26.3 °F 29.58 in NNE 3.2 mph 4.6 mph 93 % 0.00 in
06:55 28.1 °F 26.3 °F 29.58 in NNE 1.4 mph 3.5 mph 93 % 0.00 in
07:00 28.1 °F 26.1 °F 29.36 in NNE 4.0 mph 6.0 mph 92 % 0.00 in
07:05 28.1 °F 26.1 °F 29.59 in NE 3.0 mph 5.8 mph 92 % 0.00 in
07:07 28.0 °F 26.0 °F 29.36 in North 4.5 mph 6.9 mph 92 % 0.00 in
07:12 28.0 °F 26.0 °F 29.59 in NNE 4.1 mph 6.0 mph 92 % 0.00 in
07:17 28.0 °F 26.0 °F 29.59 in NNE 2.6 mph 5.8 mph 92 % 0.00 in
07:22 27.9 °F 25.9 °F 29.37 in NNE 2.6 mph 5.0 mph 92 % 0.00 in
07:28 27.9 °F 25.9 °F 29.59 in NE 3.3 mph 6.0 mph 92 % 0.00 in
07:33 27.9 °F 25.9 °F 29.60 in NNE 2.4 mph 4.6 mph 92 % 0.00 in
07:38 27.9 °F 26.1 °F 29.59 in North 3.7 mph 7.0 mph 93 % 0.00 in
07:43 27.9 °F 26.1 °F 29.59 in North 2.1 mph 4.0 mph 93 % 0.00 in
07:46 27.8 °F 26.0 °F 29.37 in ENE 0.8 mph 3.5 mph 93 % 0.00 in
07:51 27.8 °F 26.0 °F 29.60 in NE 2.0 mph 6.0 mph 93 % 0.00 in
07:56 27.8 °F 26.0 °F 29.60 in NNE 3.0 mph 5.0 mph 93 % 0.00 in
08:01 27.8 °F 26.0 °F 29.61 in NNE 1.3 mph 3.0 mph 93 % 0.01 in
08:03 27.8 °F 26.0 °F 29.39 in North 3.1 mph 4.6 mph 93 % 0.02 in
08:06 27.8 °F 26.0 °F 29.60 in NNE 2.0 mph 5.0 mph 93 % 0.00 in
08:11 27.8 °F 26.0 °F 29.60 in NNE 3.0 mph 6.0 mph 93 % 0.00 in
08:15 27.8 °F 26.0 °F 29.39 in NNE 4.5 mph 6.9 mph 93 % 0.02 in
08:20 27.7 °F 25.9 °F 29.62 in NNE 4.4 mph 6.9 mph 93 % 0.02 in
08:25 27.6 °F 25.8 °F 29.63 in North 2.6 mph 6.9 mph 93 % 0.02 in
08:30 27.6 °F 25.8 °F 29.63 in NNE 5.0 mph 6.0 mph 93 % 0.02 in
08:35 27.5 °F 25.7 °F 29.63 in NNE 3.9 mph 6.0 mph 93 % 0.03 in
08:40 27.4 °F 25.6 °F 29.64 in NE 3.4 mph 7.0 mph 93 % 0.03 in
08:42 27.4 °F 25.6 °F 29.41 in NNE 5.5 mph 10.4 mph 93 % 0.03 in
08:47 27.4 °F 25.6 °F 29.64 in NNE 4.0 mph 5.8 mph 93 % 0.02 in
08:52 27.3 °F 25.5 °F 29.64 in NNE 5.2 mph 10.0 mph 93 % 0.02 in
08:57 27.3 °F 25.5 °F 29.65 in NE 4.3 mph 7.0 mph 93 % 0.02 in
09:02 27.3 °F 25.5 °F 29.65 in NNE 5.6 mph 8.1 mph 93 % 0.01 in
09:07 27.3 °F 25.5 °F 29.65 in NNE 4.2 mph 7.0 mph 93 % 0.01 in
09:08 27.3 °F 25.5 °F 29.43 in NE 4.5 mph 6.0 mph 93 % 0.01 in
09:12 27.3 °F 25.5 °F 29.66 in NNE 5.0 mph 7.0 mph 93 % 0.01 in
09:17 27.2 °F 25.2 °F 29.66 in North 4.9 mph 8.1 mph 92 % 0.01 in
09:22 27.1 °F 25.1 °F 29.67 in NNE 4.8 mph 10.4 mph 92 % 0.01 in
09:25 27.0 °F 25.0 °F 29.45 in North 6.1 mph 8.0 mph 92 % 0.01 in
09:30 26.8 °F 24.5 °F 29.67 in North 6.2 mph 8.1 mph 91 % 0.01 in
09:36 26.7 °F 24.4 °F 29.68 in NNE 5.0 mph 10.0 mph 91 % 0.00 in
09:41 26.7 °F 24.4 °F 29.69 in North 5.0 mph 10.0 mph 91 % 0.00 in
09:46 26.7 °F 24.4 °F 29.69 in North 2.0 mph 5.0 mph 91 % 0.00 in
09:51 26.6 °F 24.1 °F 29.69 in North 6.0 mph 9.0 mph 90 % 0.00 in
09:56 26.7 °F 24.1 °F 29.70 in North 5.0 mph 7.0 mph 90 % 0.00 in
10:01 26.7 °F 24.2 °F 29.70 in NNE 4.5 mph 6.9 mph 90 % 0.00 in
10:04 26.7 °F 24.2 °F 29.48 in North 1.4 mph 4.6 mph 90 % 0.00 in
10:06 26.7 °F 24.2 °F 29.70 in NNW 1.6 mph 3.5 mph 90 % 0.00 in
10:11 26.8 °F 24.3 °F 29.70 in NNE 4.1 mph 6.9 mph 90 % 0.00 in
10:16 26.9 °F 24.1 °F 29.71 in NW 3.0 mph 5.8 mph 89 % 0.00 in
10:21 27.1 °F 24.3 °F 29.71 in North 5.5 mph 8.1 mph 89 % 0.00 in
10:26 27.3 °F 24.5 °F 29.71 in NNE 3.9 mph 5.8 mph 89 % 0.00 in
10:27 27.4 °F 24.6 °F 29.49 in NNE 2.5 mph 4.6 mph 89 % 0.00 in
10:33 27.5 °F 24.4 °F 29.71 in North 4.6 mph 7.0 mph 88 % 0.00 in
10:38 27.7 °F 24.6 °F 29.71 in North 5.2 mph 6.0 mph 88 % 0.00 in
10:43 27.9 °F 24.5 °F 29.72 in NNE 2.4 mph 3.5 mph 87 % 0.00 in
10:48 28.0 °F 24.4 °F 29.72 in North 1.6 mph 6.0 mph 86 % 0.00 in
10:53 28.1 °F 24.5 °F 29.71 in NNE 3.7 mph 5.0 mph 86 % 0.00 in
10:58 28.3 °F 24.6 °F 29.71 in NNW 3.8 mph 6.9 mph 86 % 0.00 in
10:59 28.4 °F 24.7 °F 29.49 in NE 4.0 mph 6.9 mph 86 % 0.00 in
11:04 28.3 °F 24.1 °F 29.71 in North 4.3 mph 8.1 mph 84 % 0.00 in
11:09 28.4 °F 24.2 °F 29.71 in NNW 1.2 mph 3.5 mph 84 % 0.00 in
11:14 28.5 °F 24.3 °F 29.71 in North 3.3 mph 6.9 mph 84 % 0.00 in
11:19 28.5 °F 24.3 °F 29.72 in NNW 2.8 mph 5.8 mph 84 % 0.00 in
11:24 28.7 °F 24.5 °F 29.72 in NNW 2.8 mph 5.8 mph 84 % 0.00 in
11:29 28.8 °F 24.6 °F 29.73 in NNE 3.3 mph 5.8 mph 84 % 0.00 in
11:35 28.8 °F 24.6 °F 29.72 in NW 2.5 mph 4.6 mph 84 % 0.00 in
11:40 28.9 °F 24.4 °F 29.73 in NW 2.6 mph 5.8 mph 83 % 0.00 in
11:41 28.8 °F 24.3 °F 29.73 in NW 1.1 mph 8.1 mph 83 % 0.00 in
11:46 28.9 °F 24.4 °F 29.74 in WNW 1.3 mph 3.5 mph 83 % 0.00 in
11:51 28.9 °F 24.1 °F 29.74 in WNW 2.5 mph 4.0 mph 82 % 0.00 in
11:53 28.9 °F 24.1 °F 29.74 in WNW 2.9 mph 8.0 mph 82 % 0.00 in
11:58 28.9 °F 23.8 °F 29.73 in WNW 4.6 mph 9.2 mph 81 % 0.00 in
12:03 29.0 °F 23.6 °F 29.74 in NW 1.5 mph 4.0 mph 80 % 0.00 in
12:08 29.2 °F 23.8 °F 29.74 in West 3.5 mph 7.0 mph 80 % 0.00 in
12:13 29.3 °F 23.6 °F 29.74 in West 4.9 mph 8.1 mph 79 % 0.00 in
12:18 29.6 °F 23.9 °F 29.74 in WNW 3.4 mph 6.9 mph 79 % 0.00 in
12:19 29.7 °F 24.0 °F 29.52 in WNW 3.6 mph 9.0 mph 79 % 0.00 in
12:22 29.9 °F 24.2 °F 29.52 in WNW 1.9 mph 5.0 mph 79 % 0.00 in
12:28 30.4 °F 24.4 °F 29.74 in WNW 2.4 mph 4.6 mph 78 % 0.00 in
12:33 30.8 °F 24.4 °F 29.75 in NW 5.4 mph 5.8 mph 77 % 0.00 in
12:38 31.0 °F 24.3 °F 29.75 in WNW 4.2 mph 12.7 mph 76 % 0.00 in
12:43 31.2 °F 24.2 °F 29.75 in NNW 3.6 mph 8.1 mph 75 % 0.00 in
12:48 31.4 °F 24.1 °F 29.75 in NNW 4.4 mph 9.2 mph 74 % 0.00 in
12:53 31.5 °F 24.2 °F 29.53 in WNW 6.5 mph 9.2 mph 74 % 0.00 in
12:58 31.4 °F 24.1 °F 29.75 in NW 3.0 mph 5.8 mph 74 % 0.00 in
13:03 31.5 °F 24.2 °F 29.76 in North 7.0 mph 12.7 mph 74 % 0.00 in
13:08 31.5 °F 23.8 °F 29.76 in North 4.7 mph 12.7 mph 73 % 0.00 in
13:13 31.5 °F 23.5 °F 29.76 in NW 5.9 mph 11.5 mph 72 % 0.00 in
13:15 31.6 °F 23.6 °F 29.54 in WNW 6.7 mph 13.8 mph 72 % 0.00 in
13:18 31.5 °F 23.2 °F 29.54 in West 5.2 mph 9.0 mph 71 % 0.00 in
13:20 31.4 °F 22.7 °F 29.77 in West 8.0 mph 15.0 mph 70 % 0.00 in
13:25 31.1 °F 22.5 °F 29.77 in WNW 6.0 mph 11.5 mph 70 % 0.00 in
13:28 31.1 °F 22.8 °F 29.55 in NW 7.1 mph 11.5 mph 71 % 0.00 in
13:30 31.1 °F 23.5 °F 29.77 in NNW 4.6 mph 6.9 mph 73 % 0.00 in
13:35 31.2 °F 23.9 °F 29.77 in NW 5.2 mph 10.4 mph 74 % 0.00 in
13:41 31.2 °F 23.5 °F 29.78 in NNW 7.0 mph 12.0 mph 73 % 0.00 in
13:46 31.1 °F 22.8 °F 29.78 in NNW 4.6 mph 5.0 mph 71 % 0.00 in
13:51 31.0 °F 23.4 °F 29.78 in NW 6.0 mph 12.0 mph 73 % 0.00 in
13:56 30.8 °F 22.8 °F 29.78 in NW 5.0 mph 12.0 mph 72 % 0.00 in
14:01 30.8 °F 22.5 °F 29.79 in NW 8.0 mph 14.0 mph 71 % 0.00 in
14:06 30.8 °F 22.8 °F 29.79 in WNW 3.0 mph 15.0 mph 72 % 0.00 in
14:07 30.8 °F 23.2 °F 29.57 in WNW 7.0 mph 13.0 mph 73 % 0.00 in
14:12 30.8 °F 22.5 °F 29.79 in WNW 7.4 mph 13.8 mph 71 % 0.00 in
14:17 30.8 °F 22.2 °F 29.79 in WNW 5.0 mph 8.1 mph 70 % 0.00 in
14:22 30.9 °F 22.9 °F 29.58 in NW 6.4 mph 16.0 mph 72 % 0.00 in
14:23 30.9 °F 23.3 °F 29.80 in West 7.4 mph 16.1 mph 73 % 0.00 in
14:28 30.8 °F 23.2 °F 29.81 in WNW 5.9 mph 12.7 mph 73 % 0.00 in
14:33 30.8 °F 23.2 °F 29.80 in NW 5.0 mph 12.7 mph 73 % 0.00 in
14:34 30.9 °F 23.3 °F 29.59 in WSW 3.6 mph 12.7 mph 73 % 0.00 in
14:39 30.9 °F 22.3 °F 29.81 in West 3.3 mph 7.0 mph 70 % 0.00 in
14:44 30.9 °F 22.9 °F 29.81 in WNW 3.8 mph 8.1 mph 72 % 0.00 in
14:49 30.9 °F 23.6 °F 29.82 in NNW 7.5 mph 12.7 mph 74 % 0.00 in
14:54 30.9 °F 23.3 °F 29.83 in WNW 3.7 mph 7.0 mph 73 % 0.00 in
14:59 31.0 °F 23.4 °F 29.83 in North 8.4 mph 18.4 mph 73 % 0.00 in
15:04 31.1 °F 22.1 °F 29.83 in NW 7.9 mph 16.1 mph 69 % 0.00 in
15:09 31.1 °F 22.1 °F 29.84 in SW 8.9 mph 15.0 mph 69 % 0.00 in
15:14 31.1 °F 20.7 °F 29.84 in WNW 5.5 mph 12.7 mph 65 % 0.00 in
15:19 30.8 °F 20.0 °F 29.84 in NW 7.2 mph 13.0 mph 64 % 0.00 in
15:25 30.6 °F 19.9 °F 29.84 in WSW 5.1 mph 9.2 mph 64 % 0.00 in
15:30 30.4 °F 19.7 °F 29.85 in West 10.5 mph 21.9 mph 64 % 0.00 in
15:35 30.3 °F 19.9 °F 29.85 in West 6.2 mph 16.1 mph 65 % 0.00 in
15:40 30.2 °F 20.2 °F 29.86 in NNW 1.8 mph 10.4 mph 66 % 0.00 in
15:43 30.1 °F 20.1 °F 29.64 in NW 3.2 mph 9.2 mph 66 % 0.00 in
15:48 30.1 °F 19.7 °F 29.86 in NW 10.4 mph 18.4 mph 65 % 0.00 in
15:53 30.0 °F 19.3 °F 29.87 in West 9.0 mph 18.4 mph 64 % 0.00 in
15:58 30.0 °F 18.5 °F 29.87 in WNW 9.0 mph 17.3 mph 62 % 0.00 in
16:03 29.9 °F 18.8 °F 29.87 in NW 9.3 mph 13.8 mph 63 % 0.00 in
16:08 29.7 °F 18.6 °F 29.87 in West 5.4 mph 16.1 mph 63 % 0.00 in
16:13 29.6 °F 18.2 °F 29.87 in WSW 8.4 mph 16.1 mph 62 % 0.00 in
16:14 29.5 °F 18.1 °F 29.87 in WNW 7.6 mph 16.1 mph 62 % 0.00 in
16:19 29.3 °F 17.5 °F 29.87 in West 7.3 mph 18.4 mph 61 % 0.00 in
16:24 29.1 °F 16.9 °F 29.88 in NW 6.9 mph 17.0 mph 60 % 0.00 in
16:29 28.9 °F 16.7 °F 29.88 in West 5.2 mph 9.2 mph 60 % 0.00 in
16:34 28.7 °F 16.9 °F 29.89 in NW 6.5 mph 15.0 mph 61 % 0.00 in
16:39 28.6 °F 16.8 °F 29.89 in West 7.8 mph 11.5 mph 61 % 0.00 in
16:44 28.6 °F 16.8 °F 29.89 in WNW 6.3 mph 12.7 mph 61 % 0.00 in
16:49 28.5 °F 16.7 °F 29.91 in West 6.8 mph 11.5 mph 61 % 0.00 in
16:54 28.4 °F 15.9 °F 29.91 in WNW 7.0 mph 12.7 mph 59 % 0.00 in
16:59 28.3 °F 15.8 °F 29.92 in WNW 7.7 mph 10.4 mph 59 % 0.00 in
17:04 28.2 °F 16.1 °F 29.93 in West 7.2 mph 11.0 mph 60 % 0.00 in
17:09 28.1 °F 14.8 °F 29.93 in West 6.4 mph 12.7 mph 57 % 0.00 in
17:14 27.9 °F 14.6 °F 29.94 in NW 3.5 mph 11.5 mph 57 % 0.00 in
17:19 27.8 °F 14.9 °F 29.94 in East 5.4 mph 10.4 mph 58 % 0.00 in
17:24 27.6 °F 15.1 °F 29.94 in WNW 6.4 mph 12.0 mph 59 % 0.00 in
17:29 27.6 °F 15.1 °F 29.94 in NW 5.3 mph 11.5 mph 59 % 0.00 in
17:34 27.5 °F 15.0 °F 29.95 in NW 9.0 mph 15.0 mph 59 % 0.00 in
17:40 27.6 °F 14.7 °F 29.95 in NNW 6.2 mph 10.4 mph 58 % 0.00 in
17:45 27.5 °F 14.6 °F 29.95 in NNW 6.1 mph 9.2 mph 58 % 0.00 in
17:50 27.4 °F 14.5 °F 29.96 in WSW 8.9 mph 17.3 mph 58 % 0.00 in
17:55 27.4 °F 14.5 °F 29.97 in WNW 4.3 mph 13.8 mph 58 % 0.00 in
18:00 27.4 °F 13.7 °F 29.96 in WNW 7.7 mph 17.3 mph 56 % 0.00 in
18:05 27.3 °F 13.7 °F 29.96 in West 7.9 mph 16.1 mph 56 % 0.00 in
18:10 27.3 °F 14.1 °F 29.96 in WNW 10.8 mph 18.4 mph 57 % 0.00 in
18:15 27.2 °F 14.0 °F 29.97 in NW 6.3 mph 12.0 mph 57 % 0.00 in
18:20 27.2 °F 14.4 °F 29.97 in WNW 4.5 mph 11.5 mph 58 % 0.00 in
18:25 27.1 °F 14.3 °F 29.97 in NW 7.8 mph 16.1 mph 58 % 0.00 in
18:30 27.1 °F 14.3 °F 29.98 in NW 7.4 mph 11.5 mph 58 % 0.00 in
18:35 27.0 °F 13.4 °F 29.99 in West 5.5 mph 10.4 mph 56 % 0.00 in
18:40 27.0 °F 14.2 °F 29.98 in WSW 8.6 mph 17.3 mph 58 % 0.00 in
18:45 26.9 °F 13.7 °F 29.99 in West 9.3 mph 13.8 mph 57 % 0.00 in
18:51 26.9 °F 13.3 °F 29.99 in WNW 6.3 mph 13.8 mph 56 % 0.00 in
18:55 26.8 °F 14.0 °F 30.00 in West 5.4 mph 10.4 mph 58 % 0.00 in
19:01 26.7 °F 13.5 °F 30.00 in WNW 5.2 mph 13.8 mph 57 % 0.00 in
19:06 26.7 °F 13.9 °F 30.01 in West 4.4 mph 12.7 mph 58 % 0.00 in
19:11 26.7 °F 13.9 °F 30.01 in West 7.4 mph 13.8 mph 58 % 0.00 in
19:16 26.7 °F 13.9 °F 30.01 in WSW 8.5 mph 11.5 mph 58 % 0.00 in
19:21 26.6 °F 13.4 °F 30.01 in West 5.8 mph 14.0 mph 57 % 0.00 in
19:26 26.5 °F 13.3 °F 30.02 in WNW 8.6 mph 13.8 mph 57 % 0.00 in
19:28 26.5 °F 13.3 °F 30.02 in WNW 4.7 mph 8.1 mph 57 % 0.00 in
19:33 26.4 °F 13.2 °F 30.02 in WNW 7.1 mph 15.0 mph 57 % 0.00 in
19:38 26.3 °F 13.5 °F 30.02 in NNW 3.1 mph 5.8 mph 58 % 0.00 in
19:43 26.2 °F 13.8 °F 30.02 in WNW 6.5 mph 12.7 mph 59 % 0.00 in
19:48 26.2 °F 14.2 °F 30.02 in WNW 3.9 mph 10.4 mph 60 % 0.00 in
19:53 26.2 °F 13.8 °F 30.02 in WNW 4.7 mph 12.7 mph 59 % 0.00 in
19:58 26.1 °F 13.7 °F 30.03 in West 2.7 mph 12.7 mph 59 % 0.00 in
20:03 26.1 °F 13.7 °F 30.03 in NNW 5.8 mph 9.2 mph 59 % 0.00 in
20:08 26.0 °F 13.6 °F 30.03 in WNW 5.0 mph 9.2 mph 59 % 0.00 in
20:13 26.0 °F 12.4 °F 30.03 in West 7.8 mph 17.3 mph 56 % 0.00 in
20:18 25.9 °F 11.5 °F 30.04 in WNW 9.5 mph 17.3 mph 54 % 0.00 in
20:23 25.7 °F 10.9 °F 30.04 in WSW 9.2 mph 16.1 mph 53 % 0.00 in
20:28 25.6 °F 10.8 °F 30.04 in NW 10.7 mph 16.1 mph 53 % 0.00 in
20:33 25.5 °F 11.1 °F 30.04 in NW 3.7 mph 11.5 mph 54 % 0.00 in
20:38 25.4 °F 11.5 °F 30.05 in WNW 6.0 mph 11.5 mph 55 % 0.00 in
20:43 25.3 °F 11.4 °F 30.05 in WNW 10.8 mph 19.6 mph 55 % 0.00 in
20:48 25.2 °F 10.9 °F 30.06 in WNW 11.7 mph 16.1 mph 54 % 0.00 in
20:55 25.1 °F 11.2 °F 30.06 in WNW 7.9 mph 17.3 mph 55 % 0.00 in
21:00 25.0 °F 11.1 °F 30.06 in WNW 5.5 mph 11.5 mph 55 % 0.00 in
21:05 24.9 °F 11.4 °F 30.07 in West 6.1 mph 15.0 mph 56 % 0.00 in
21:10 24.8 °F 11.3 °F 30.07 in NW 5.4 mph 11.5 mph 56 % 0.00 in
21:15 24.7 °F 11.2 °F 30.07 in WNW 7.8 mph 18.4 mph 56 % 0.00 in
21:20 24.6 °F 10.7 °F 30.07 in WNW 9.0 mph 16.1 mph 55 % 0.00 in
21:24 24.5 °F 10.6 °F 30.07 in West 7.2 mph 11.5 mph 55 % 0.00 in
21:29 24.5 °F 10.6 °F 30.07 in NW 6.5 mph 12.7 mph 55 % 0.00 in
21:35 24.4 °F 11.3 °F 30.07 in NW 6.9 mph 15.0 mph 57 % 0.00 in
21:40 24.4 °F 11.7 °F 30.08 in WNW 6.9 mph 10.4 mph 58 % 0.00 in
21:45 24.4 °F 11.7 °F 30.08 in NW 4.3 mph 11.0 mph 58 % 0.00 in
21:50 24.3 °F 11.2 °F 30.08 in West 9.9 mph 16.1 mph 57 % 0.00 in
21:55 24.3 °F 11.6 °F 30.08 in West 7.6 mph 13.8 mph 58 % 0.00 in
22:00 24.3 °F 11.6 °F 30.08 in West 3.9 mph 13.8 mph 58 % 0.00 in
22:05 24.2 °F 11.5 °F 30.08 in West 7.1 mph 11.5 mph 58 % 0.00 in
22:11 24.2 °F 11.1 °F 30.08 in NW 6.4 mph 16.1 mph 57 % 0.00 in
22:16 24.1 °F 11.8 °F 30.09 in West 7.3 mph 15.0 mph 59 % 0.00 in
22:21 24.2 °F 12.3 °F 30.09 in WSW 5.8 mph 11.5 mph 60 % 0.00 in
22:26 24.1 °F 11.4 °F 30.09 in NNW 6.6 mph 11.5 mph 58 % 0.00 in
22:31 24.1 °F 12.2 °F 30.09 in NW 4.0 mph 9.2 mph 60 % 0.00 in
22:36 24.2 °F 12.3 °F 30.10 in NW 6.6 mph 10.4 mph 60 % 0.00 in
22:41 24.1 °F 12.2 °F 30.09 in NNW 9.9 mph 16.1 mph 60 % 0.00 in
22:46 24.0 °F 12.5 °F 30.08 in WNW 3.9 mph 12.7 mph 61 % 0.00 in
22:51 24.0 °F 12.5 °F 30.08 in NW 8.5 mph 16.1 mph 61 % 0.00 in
22:56 24.0 °F 12.5 °F 30.08 in NW 8.5 mph 18.4 mph 61 % 0.00 in
23:01 24.0 °F 12.5 °F 30.08 in West 5.8 mph 11.5 mph 61 % 0.00 in
23:06 24.0 °F 12.5 °F 30.08 in WSW 6.4 mph 12.7 mph 61 % 0.00 in
23:11 24.0 °F 12.5 °F 30.08 in WNW 7.9 mph 13.8 mph 61 % 0.00 in
23:16 23.9 °F 12.4 °F 30.09 in West 10.8 mph 21.0 mph 61 % 0.00 in
23:21 23.9 °F 12.0 °F 30.08 in NNW 4.6 mph 11.5 mph 60 % 0.00 in
23:26 23.9 °F 12.8 °F 30.08 in WNW 5.8 mph 11.5 mph 62 % 0.00 in
23:31 23.8 °F 12.3 °F 30.08 in NNW 6.0 mph 6.0 mph 61 % 0.00 in
23:37 23.8 °F 13.0 °F 30.09 in NNW 6.2 mph 9.0 mph 63 % 0.00 in
23:42 23.7 °F 12.2 °F 30.09 in WNW 3.9 mph 9.2 mph 61 % 0.00 in
23:48 23.6 °F 12.5 °F 30.09 in NNW 6.2 mph 11.0 mph 62 % 0.00 in
23:53 23.5 °F 11.6 °F 30.09 in NW 6.2 mph 12.7 mph 60 % 0.00 in
23:58 23.4 °F 11.9 °F 30.08 in WNW 7.4 mph 12.7 mph 61 % 0.00 in
Crab Meadow Weather
Compliments of Weather Underground - 3 mb

Script developed by  Jim McMurry - jmcmurry@mwt.net Adapted for the template by  Wim van der Kuil - Leuven-Template.eu

Humidity: Humidity is the amount of water vapor in the air. The term "humidity" refers to relative humidity. Relative humidity is defined as the amount of water vapor in a sample of air compared to the maximum amount of water vapor the air can hold at any specific temperature in a form of 0 to 100%. Relative humidity is important in forecasting weather. Humidity indicates the likelihood of precipitation, dew, or fog. High humidity makes people feel hotter outside in the summer because it reduces the effectiveness of sweating to cool the body by preventing the evaporation of perspiration from the skin.